^^
Station Historical Data
Daily Summary for July 12, 2018 Units:  Metric    English   Both
« Previous Day
Next Day »
Daily Weekly Monthly Yearly Custom
  High: Low: Average:
Temperature: -17.8 °C 26.1 °C 31.9 °C
Dew Point: -17.8 °C 18.3 °C 21.1 °C
Humidity: Humidity% 33% 55%
Wind Speed: 0km/h 0km/h 6.3km/h
Wind Gust: 0km/h - -
Wind- - SSE
Pressure: 0 hPa 1011.4 hPa -
Precipitation: 0 mm    
Historical Graphs
 
 
Tabular Data for July 12, 2018
Time Temperature Dew Point Pressure Wind Wind Speed Wind Gust Humidity Rainfall Rate (Hourly)
-17.8 °C -17.8 °C 0 hPa Calm     Humidity% 0 mm
00:04 29.9 °C 21 °C 1013.8 hPa SSE 1.9 km/h 1 km/h 59% 0 mm
00:09 29.8 °C 20.9 °C 1013.8 hPa SE 5.6 km/h 2.9 km/h 59% 0 mm
00:14 29.8 °C 20.9 °C 1013.8 hPa SE 6.4 km/h 2.7 km/h 59% 0 mm
00:18 29.8 °C 20.6 °C 1013.8 hPa SSE 3.7 km/h 2.6 km/h 58% 0 mm
00:24 29.8 °C 20.6 °C 1013.8 hPa SSE 7.4 km/h 4.3 km/h 58% 0 mm
00:29 29.8 °C 20.6 °C 1013.8 hPa SSE 1.9 km/h 1 km/h 58% 0 mm
00:34 29.7 °C 20.6 °C 1013.8 hPa SE 3.7 km/h 1 km/h 58% 0 mm
00:39 29.7 °C 20.5 °C 1013.8 hPa SE 1.9 km/h 0.5 km/h 58% 0 mm
00:44 29.6 °C 20.4 °C 1013.8 hPa SE 3.7 km/h   58% 0 mm
00:49 29.6 °C 20.4 °C 1013.8 hPa SSE 3.7 km/h 2.1 km/h 58% 0 mm
00:54 29.6 °C 20.4 °C 1013.8 hPa SSE 3.7 km/h 1.3 km/h 58% 0 mm
00:59 29.4 °C 20.6 °C 1014.1 hPa Calm   0.6 km/h 59% 0 mm
01:04 29.3 °C 20.2 °C 1013.8 hPa SE 1.9 km/h 1.3 km/h 58% 0 mm
01:09 29.3 °C 20.4 °C 1013.8 hPa SE 1.9 km/h 1.6 km/h 59% 0 mm
01:14 29.2 °C 20.3 °C 1013.8 hPa SE 3.7 km/h 1 km/h 59% 0 mm
01:19 29.1 °C 20.3 °C 1013.8 hPa SE 1.9 km/h 0.8 km/h 59% 0 mm
01:24 29 °C 20.4 °C 1013.8 hPa SE 7.4 km/h 3.1 km/h 60% 0 mm
01:29 28.9 °C 20.7 °C 1013.8 hPa ESE 5.6 km/h 1.9 km/h 61% 0 mm
01:34 28.8 °C 20.6 °C 1013.8 hPa ESE 5.6 km/h 0.8 km/h 61% 0 mm
01:39 28.8 °C 20.5 °C 1013.8 hPa ESE 1.9 km/h 0.6 km/h 61% 0 mm
01:44 28.8 °C 20.8 °C 1013.4 hPa SE 14.8 km/h 5.5 km/h 62% 0 mm
01:49 28.8 °C 20.8 °C 1013.8 hPa SE 3.7 km/h 1.6 km/h 62% 0 mm
01:54 28.8 °C 20.8 °C 1013.4 hPa SSE 3.7 km/h 2.1 km/h 62% 0 mm
01:59 28.8 °C 21.1 °C 1013.4 hPa SE 9.3 km/h 4.3 km/h 63% 0 mm
02:04 28.7 °C 21 °C 1013.4 hPa East 3.7 km/h 3.5 km/h 63% 0 mm
02:09 28.7 °C 21.2 °C 1013.4 hPa SSE 3.7 km/h 2.1 km/h 64% 0 mm
02:14 28.6 °C 21.1 °C 1013.8 hPa SE 7.4 km/h 5.3 km/h 64% 0 mm
02:19 28.6 °C 21.3 °C 1013.8 hPa SE 4.8 km/h 4.3 km/h 65% 0 mm
02:24 28.5 °C 21.3 °C 1013.8 hPa SSE 14.8 km/h 4.7 km/h 65% 0 mm
02:29 28.5 °C 21.3 °C 1013.8 hPa SE 3.7 km/h 2.9 km/h 65% 0 mm
02:34 28.4 °C 21.2 °C 1013.4 hPa SE 3.7 km/h 3.4 km/h 65% 0 mm
02:39 28.4 °C 21.5 °C 1013.4 hPa SE 8 km/h 2.6 km/h 66% 0 mm
02:44 28.3 °C 21.4 °C 1013.4 hPa East 5.6 km/h 1.3 km/h 66% 0 mm
02:49 28.3 °C 21.4 °C 1013.4 hPa SE 11.1 km/h 3.2 km/h 66% 0 mm
02:54 28.3 °C 21.3 °C 1013.4 hPa SE 7.4 km/h 6.8 km/h 66% 0 mm
02:59 28.2 °C 21.3 °C 1013.4 hPa SE 12.9 km/h 1.8 km/h 66% 0 mm
03:04 28.2 °C 21.2 °C 1013.4 hPa SE 7.4 km/h 2.1 km/h 66% 0 mm
03:09 28.2 °C 21.4 °C 1013.4 hPa SE 3.7 km/h 1.9 km/h 67% 0 mm
03:14 28.1 °C 21.3 °C 1013.4 hPa ESE 14.8 km/h 1.8 km/h 67% 0 mm
03:19 28 °C 21.3 °C 1013.4 hPa SE 1.9 km/h 4.2 km/h 67% 0 mm
03:24 27.9 °C 21.5 °C 1013.4 hPa SE 13 km/h 3.5 km/h 68% 0 mm
03:29 27.9 °C 21.5 °C 1013.4 hPa SSE 7.4 km/h 3.5 km/h 68% 0 mm
03:34 27.9 °C 21.4 °C 1013.4 hPa SE 5.6 km/h 4.5 km/h 68% 0 mm
03:39 27.8 °C 21.3 °C 1013.1 hPa ESE 11.1 km/h 4.3 km/h 68% 0 mm
03:44 27.8 °C 21.3 °C 1013.1 hPa East 13 km/h 5.8 km/h 68% 0 mm
03:49 27.8 °C 21.6 °C 1013.1 hPa ESE 7.4 km/h 1.9 km/h 69% 0 mm
03:54 27.7 °C 21.4 °C 1013.1 hPa SE 5.6 km/h 6.4 km/h 69% 0 mm
03:59 27.6 °C 21.4 °C 1013.1 hPa SE 5.6 km/h 1.6 km/h 69% 0 mm
04:04 27.5 °C 21.6 °C 1013.1 hPa SSE 9.7 km/h 3.5 km/h 70% 0 mm
04:09 27.4 °C 21.5 °C 1013.1 hPa SE 9.3 km/h 3.5 km/h 70% 0 mm
04:14 27.4 °C 21.5 °C 1013.1 hPa SE 7.4 km/h 3.4 km/h 70% 0 mm
04:19 27.4 °C 21.4 °C 1013.1 hPa Calm     70% 0 mm
04:24 27.3 °C 21.4 °C 1013.1 hPa East 3.7 km/h 1.8 km/h 70% 0 mm
04:29 27.3 °C 21.6 °C 1013.1 hPa SSE 14.8 km/h 2.9 km/h 71% 0 mm
04:34 27.3 °C 21.6 °C 1013.1 hPa SSE 3.7 km/h 2.1 km/h 71% 0 mm
04:39 27.2 °C 21.5 °C 1013.1 hPa SE 11.1 km/h 2.4 km/h 71% 0 mm
04:44 27.2 °C 21.5 °C 1013.1 hPa SE 9.3 km/h 3.9 km/h 71% 0 mm
04:49 27.2 °C 21.4 °C 1012.8 hPa SE 14.8 km/h 3.4 km/h 71% 0 mm
04:54 27.1 °C 21.6 °C 1013.1 hPa SE 5.6 km/h 1.9 km/h 72% 0 mm
04:58 27.1 °C 21.6 °C 1013.1 hPa SE 3.2 km/h 1.9 km/h 72% 0 mm
05:04 27 °C 21.5 °C 1013.1 hPa SSE 11.1 km/h 4.2 km/h 72% 0 mm
05:09 26.9 °C 21.7 °C 1013.1 hPa SE 5.6 km/h 3.2 km/h 73% 0 mm
05:14 26.9 °C 21.6 °C 1013.1 hPa SSE 11.1 km/h 3.2 km/h 73% 0 mm
05:19 26.8 °C 21.6 °C 1013.1 hPa SE 1.9 km/h 6 km/h 73% 0 mm
05:24 26.8 °C 21.6 °C 1013.1 hPa SE 5.6 km/h 3.5 km/h 73% 0 mm
05:29 26.8 °C 21.8 °C 1013.1 hPa SE 11.3 km/h 4.7 km/h 74% 0 mm
05:34 26.7 °C 21.7 °C 1013.4 hPa Calm   1.3 km/h 74% 0 mm
05:39 26.7 °C 21.7 °C 1013.4 hPa SSE 5.6 km/h 4.8 km/h 74% 0 mm
05:44 26.6 °C 21.6 °C 1013.4 hPa ESE 5.6 km/h 1.4 km/h 74% 0 mm
05:49 26.6 °C 21.8 °C 1013.4 hPa SSE 13 km/h 2.9 km/h 75% 0 mm
05:54 26.5 °C 21.7 °C 1013.4 hPa SE 5.6 km/h 2.6 km/h 75% 0 mm
05:59 26.4 °C 21.7 °C 1013.4 hPa ESE 11.1 km/h 3.2 km/h 75% 0 mm
06:04 26.4 °C 21.6 °C 1013.4 hPa SSE 3.7 km/h 2.7 km/h 75% 0 mm
06:09 26.3 °C 21.8 °C 1013.4 hPa ESE 7.4 km/h 3.2 km/h 76% 0 mm
06:14 26.3 °C 21.7 °C 1013.4 hPa SSE 9.3 km/h 0.2 km/h 76% 0 mm
06:19 26.3 °C 21.7 °C 1013.4 hPa SSE 3.7 km/h 3.2 km/h 76% 0 mm
06:24 26.2 °C 21.6 °C 1013.4 hPa South 5.6 km/h 4.7 km/h 76% 0 mm
06:29 26.2 °C 21.6 °C 1013.4 hPa ESE 3.7 km/h 3.9 km/h 76% 0 mm
06:34 26.2 °C 21.8 °C 1013.4 hPa SSE 3.7 km/h 2.6 km/h 77% 0 mm
06:39 26.2 °C 21.8 °C 1013.4 hPa SE 5.6 km/h 1.3 km/h 77% 0 mm
06:44 26.1 °C 21.8 °C 1013.4 hPa SE 5.6 km/h 1.1 km/h 77% 0 mm
06:49 26.1 °C 21.8 °C 1013.4 hPa South 11.1 km/h 4.8 km/h 77% 0 mm
06:54 26.1 °C 21.8 °C 1013.4 hPa SSE 6.4 km/h 1.8 km/h 77% 0 mm
06:59 26.1 °C 21.8 °C 1013.4 hPa ESE 3.7 km/h 1.8 km/h 77% 0 mm
07:04 26.1 °C 21.8 °C 1013.4 hPa East 3.7 km/h 5.6 km/h 77% 0 mm
07:09 26.2 °C 21.8 °C 1013.4 hPa SSE 5.6 km/h 3.2 km/h 77% 0 mm
07:14 26.2 °C 21.9 °C 1013.4 hPa SSE 3.7 km/h 3.1 km/h 77% 0 mm
07:19 26.3 °C 21.9 °C 1013.4 hPa ESE 7.4 km/h 3.9 km/h 77% 0 mm
07:24 26.3 °C 22 °C 1013.8 hPa SE 3.7 km/h 1.9 km/h 77% 0 mm
07:29 26.4 °C 22.1 °C 1013.8 hPa SSW 13 km/h 5 km/h 77% 0 mm
07:34 26.5 °C 21.9 °C 1013.8 hPa SE 9.3 km/h 3.4 km/h 76% 0 mm
07:39 26.6 °C 22.2 °C 1013.8 hPa SE 5.6 km/h 2.4 km/h 77% 0 mm
07:44 26.7 °C 22.1 °C 1013.8 hPa SSE 7.4 km/h 3.2 km/h 76% 0 mm
07:49 26.8 °C 22.2 °C 1013.8 hPa SSE 5.6 km/h 2.4 km/h 76% 0 mm
07:54 26.9 °C 22.1 °C 1013.8 hPa ENE 5.6 km/h 3.2 km/h 75% 0 mm
07:59 27 °C 22.2 °C 1013.8 hPa SE 7.4 km/h 5.1 km/h 75% 0 mm
08:04 27.1 °C 22.1 °C 1013.8 hPa East 5.6 km/h 4.7 km/h 74% 0 mm
08:09 27.2 °C 22.2 °C 1013.8 hPa SSW 5.6 km/h 3.4 km/h 74% 0 mm
08:14 27.3 °C 22.1 °C 1014.1 hPa SSW 7.4 km/h 5.1 km/h 73% 0 mm
08:19 27.5 °C 22.4 °C 1013.8 hPa South 6.4 km/h 4 km/h 74% 0 mm
08:24 27.6 °C 22.3 °C 1013.8 hPa SE 3.7 km/h 2.9 km/h 73% 0 mm
08:29 27.7 °C 22.4 °C 1013.8 hPa South 3.2 km/h 1.1 km/h 73% 0 mm
08:34 27.9 °C 22.2 °C 1014.1 hPa SSE 7.4 km/h 7.1 km/h 71% 0 mm
08:39 28.1 °C 22.3 °C 1014.1 hPa South 7.4 km/h 5 km/h 71% 0 mm
08:44 28.3 °C 22.7 °C 1013.8 hPa South 3.7 km/h 2.7 km/h 72% 0 mm
08:49 28.4 °C 22.4 °C 1014.1 hPa South 6.4 km/h 3.4 km/h 70% 0 mm
08:54 28.6 °C 22.8 °C 1014.1 hPa SSE 1.9 km/h 3.9 km/h 71% 0 mm
08:59 28.7 °C 22.4 °C 1014.1 hPa SE 7.4 km/h 4.3 km/h 69% 0 mm
09:04 28.9 °C 22.9 °C 1014.1 hPa East 5.6 km/h 1 km/h 70% 0 mm
09:09 29.2 °C 22.9 °C 1014.1 hPa SSW 3.7 km/h 0.5 km/h 69% 0 mm
09:14 29.4 °C 22.9 °C 1014.1 hPa ESE 3.7 km/h 2.1 km/h 68% 0 mm
09:19 29.7 °C 22.9 °C 1014.1 hPa South 3.7 km/h 1.4 km/h 67% 0 mm
09:24 29.8 °C 23.1 °C 1014.1 hPa South 1.9 km/h 0.3 km/h 67% 0 mm
09:29 30.2 °C 23.1 °C 1014.1 hPa ESE 3.7 km/h 0.5 km/h 66% 0 mm
09:34 30.3 °C 23.3 °C 1014.1 hPa SSW 5.6 km/h 2.1 km/h 66% 0 mm
09:39 30.6 °C 23.2 °C 1014.1 hPa SSW 1.9 km/h 0.8 km/h 65% 0 mm
09:44 31 °C 23.4 °C 1014.1 hPa SW 5.6 km/h 2.4 km/h 64% 0 mm
09:49 31.4 °C 22.9 °C 1014.1 hPa South 3.7 km/h 0.8 km/h 61% 0 mm
09:54 31.7 °C 23.3 °C 1014.1 hPa South 1.9 km/h   61% 0 mm
09:59 32.2 °C 23.2 °C 1014.1 hPa West 3.7 km/h 2.4 km/h 59% 0 mm
10:04 32.4 °C 23.1 °C 1014.4 hPa SW 5.6 km/h 2.9 km/h 58% 0 mm
10:09 32.8 °C 23.4 °C 1014.4 hPa WSW 1.9 km/h 0.6 km/h 58% 0 mm
10:14 33.1 °C 23.1 °C 1014.4 hPa SSW 5.6 km/h 1 km/h 56% 0 mm
10:19 33.1 °C 23.2 °C 1014.4 hPa South 5.6 km/h 2.3 km/h 56% 0 mm
10:24 33.3 °C 23.9 °C 1014.4 hPa South 1.9 km/h 0.2 km/h 58% 0 mm
10:29 33.7 °C 23.4 °C 1014.4 hPa SSW 1.9 km/h 0.3 km/h 55% 0 mm
10:34 34.1 °C 23.4 °C 1014.4 hPa Calm   0.3 km/h 54% 0 mm
10:38 34.3 °C 22.7 °C 1014.4 hPa ESE 7.4 km/h 3.4 km/h 51% 0 mm
10:44 34.4 °C 22.8 °C 1014.4 hPa West 7.4 km/h 3.7 km/h 51% 0 mm
10:49 34.6 °C 23.3 °C 1014.4 hPa West 3.7 km/h 1.1 km/h 52% 0 mm
10:54 34.9 °C 22.9 °C 1014.4 hPa WNW 5.6 km/h 0.6 km/h 50% 0 mm
10:59 35.2 °C 23.2 °C 1014.4 hPa SSW 5.6 km/h 3.5 km/h 50% 0 mm
11:04 35.3 °C 23.3 °C 1014.4 hPa North 3.7 km/h 1.3 km/h 50% 0 mm
11:09 35.3 °C 23.3 °C 1014.4 hPa North 3.7 km/h 1.1 km/h 50% 0 mm
11:14 35.3 °C 22.9 °C 1014.4 hPa South 3.7 km/h 2.1 km/h 49% 0 mm
11:19 35.3 °C 23 °C 1014.4 hPa SW 3.7 km/h 2.1 km/h 49% 0 mm
11:24 35.7 °C 23.3 °C 1014.4 hPa SW 1.9 km/h 0.2 km/h 49% 0 mm
11:29 36 °C 22.9 °C 1014.4 hPa SSW 5.6 km/h 1.4 km/h 47% 0 mm
11:34 36.2 °C 22.7 °C 1014.4 hPa SSW 1.9 km/h 1 km/h 46% 0 mm
11:39 36.1 °C 21.9 °C 1014.4 hPa SW 3.7 km/h 1.4 km/h 44% 0 mm
11:44 35.9 °C 22.8 °C 1014.4 hPa NW 3.7 km/h 1.8 km/h 47% 0 mm
11:49 36.1 °C 21.9 °C 1014.4 hPa SW 5.6 km/h 2.7 km/h 44% 0 mm
11:54 35.9 °C 21.8 °C 1014.4 hPa SW 5.6 km/h 1 km/h 44% 0 mm
11:59 36 °C 21.4 °C 1014.4 hPa South 5.6 km/h 0.5 km/h 43% 0 mm
12:04 36.3 °C 22.1 °C 1014.4 hPa SSW 3.7 km/h 4.5 km/h 44% 0 mm
12:09 36.6 °C 21.9 °C 1014.4 hPa SW 5.6 km/h 2.9 km/h 43% 0 mm
12:14 36.6 °C 21.2 °C 1014.4 hPa South 5.6 km/h 3.7 km/h 41% 0 mm
12:19 36.3 °C 21.8 °C 1014.4 hPa South 8 km/h 2.3 km/h 43% 0 mm
12:24 36 °C 21.8 °C 1014.4 hPa South 3.7 km/h   44% 0 mm
12:29 36.1 °C 21.2 °C 1014.1 hPa SSW 5.6 km/h 0.5 km/h 42% 0 mm
12:34 36.2 °C 22 °C 1014.1 hPa SE 1.9 km/h 0.5 km/h 44% 0 mm
12:39 36 °C 21.8 °C 1014.1 hPa WSW 1.9 km/h 1.9 km/h 44% 0 mm
12:44 36.2 °C 21.2 °C 1014.1 hPa SW 11.1 km/h 2.7 km/h 42% 0 mm
12:49 36.6 °C 22.4 °C 1014.1 hPa SW 1.6 km/h 0.3 km/h 44% 0 mm
12:54 37.1 °C 22.8 °C 1014.1 hPa SSW 4.8 km/h 0.6 km/h 44% 0 mm
12:59 37.3 °C 21.8 °C 1014.1 hPa West 1.9 km/h 0.8 km/h 41% 0 mm
13:04 37.4 °C 21.6 °C 1014.1 hPa WSW 3.2 km/h 1.9 km/h 40% 0 mm
13:09 37.3 °C 21.1 °C 1014.1 hPa SSW 3.7 km/h 1.4 km/h 39% 0 mm
13:14 36.9 °C 20.7 °C 1014.1 hPa SSE 5.6 km/h 3.9 km/h 39% 0 mm
13:19 36.3 °C 21 °C 1014.1 hPa WSW 3.7 km/h 0.3 km/h 41% 0 mm
13:24 36.2 °C 21.7 °C 1014.1 hPa Calm     43% 0 mm
13:29 36.3 °C 21.4 °C 1014.1 hPa SSW 3.7 km/h 1 km/h 42% 0 mm
13:34 36.5 °C 20.7 °C 1013.8 hPa SSE 6.4 km/h 4.7 km/h 40% 0 mm
13:39 36.8 °C 20.6 °C 1013.8 hPa NE 11.1 km/h 5.6 km/h 39% 0 mm
13:44 37.1 °C 19.9 °C 1013.8 hPa SE 16.7 km/h 4.5 km/h 37% 0 mm
13:49 37.2 °C 20.6 °C 1013.8 hPa SSE 6.4 km/h 5.3 km/h 38% 0 mm
13:54 37.1 °C 19.9 °C 1013.8 hPa SSW 6.4 km/h 7.2 km/h 37% 0 mm
13:59 37.1 °C 20 °C 1013.8 hPa SE 16.7 km/h 8.5 km/h 37% 0 mm
14:04 37.1 °C 20.4 °C 1013.8 hPa South 9.3 km/h 8.5 km/h 38% 0 mm
14:09 37.2 °C 20.1 °C 1013.8 hPa South 11.1 km/h 7.1 km/h 37% 0 mm
14:14 37.3 °C 20.6 °C 1013.4 hPa East 7.4 km/h 2.6 km/h 38% 0 mm
14:19 37.4 °C 20.7 °C 1013.8 hPa SE 5.6 km/h 3.7 km/h 38% 0 mm
14:24 37.4 °C 19.8 °C 1013.4 hPa South 13 km/h 5.8 km/h 36% 0 mm
14:29 37.1 °C 19.5 °C 1013.4 hPa SE 9.3 km/h 4.7 km/h 36% 0 mm
14:34 37.1 °C 19.9 °C 1013.4 hPa SE 9.3 km/h 4 km/h 37% 0 mm
14:39 37.3 °C 19.3 °C 1013.4 hPa South 13 km/h 5.8 km/h 35% 0 mm
14:44 37.2 °C 19.2 °C 1013.4 hPa East 7.4 km/h 9 km/h 35% 0 mm
14:49 37.4 °C 20.7 °C 1013.4 hPa South 13 km/h 5.3 km/h 38% 0 mm
14:54 37.2 °C 19.6 °C 1013.4 hPa SSW 7.4 km/h 3.7 km/h 36% 0 mm
14:59 37.4 °C 19.4 °C 1013.1 hPa WSW 5.6 km/h 2.4 km/h 35% 0 mm
15:04 37.8 °C 20.2 °C 1013.1 hPa SSE 5.6 km/h 4.3 km/h 36% 0 mm
15:09 37.9 °C 20.3 °C 1013.1 hPa SSW 9.3 km/h 6.4 km/h 36% 0 mm
15:14 38.1 °C 20.4 °C 1013.1 hPa SE 8 km/h 1.3 km/h 36% 0 mm
15:19 38.1 °C 20.4 °C 1013.1 hPa ESE 11.1 km/h 6.4 km/h 36% 0 mm
15:24 37.8 °C 20.2 °C 1012.8 hPa ESE 14.8 km/h 6.8 km/h 36% 0 mm
15:28 37.9 °C 20.2 °C 1012.8 hPa SE 3.7 km/h 1.3 km/h 36% 0 mm
15:34 38.1 °C 19.9 °C 1012.8 hPa South 7.4 km/h 3.9 km/h 35% 0 mm
15:39 38.1 °C 20 °C 1012.8 hPa South 5.6 km/h 2.4 km/h 35% 0 mm
15:39 38.1 °C 20 °C 1012.8 hPa SSW 8 km/h 3.5 km/h 35% 0 mm
15:44 38.1 °C 20 °C 1012.8 hPa SSW 5.6 km/h 3.7 km/h 35% 0 mm
15:47 38.2 °C 19.6 °C 1012.8 hPa ESE 11.1 km/h 2.4 km/h 34% 0 mm
15:49 38.2 °C 19.1 °C 1012.8 hPa South 9.7 km/h 3.5 km/h 33% 0 mm
15:54 38.3 °C 20.1 °C 1012.8 hPa ESE 3.7 km/h 3.1 km/h 35% 0 mm
15:59 38.4 °C 19.8 °C 1012.8 hPa South 7.4 km/h 3.5 km/h 34% 0 mm
16:04 38.2 °C 20.5 °C 1012.8 hPa South 11.1 km/h 6.9 km/h 36% 0 mm
16:09 38.3 °C 19.7 °C 1012.8 hPa SSE 11.1 km/h 5.8 km/h 34% 0 mm
16:14 38.4 °C 19.8 °C 1012.8 hPa SE 11.1 km/h 3.1 km/h 34% 0 mm
16:19 38.2 °C 19.6 °C 1012.8 hPa SE 11.1 km/h 3.5 km/h 34% 0 mm
16:24 37.9 °C 19.3 °C 1012.4 hPa SSE 7.4 km/h 5.1 km/h 34% 0 mm
16:29 37.8 °C 19.7 °C 1012.4 hPa ESE 11.1 km/h 5.3 km/h 35% 0 mm
16:34 37.7 °C 19.2 °C 1012.4 hPa ESE 5.6 km/h 2.1 km/h 34% 0 mm
16:39 37.8 °C 18.8 °C 1012.4 hPa SSW 3.7 km/h 3.7 km/h 33% 0 mm
16:44 38 °C 18.9 °C 1012.4 hPa South 13 km/h 5.6 km/h 33% 0 mm
16:49 37.8 °C 19.2 °C 1012.4 hPa ESE 5.6 km/h 3.5 km/h 34% 0 mm
16:54 37.9 °C 18.9 °C 1012.4 hPa ESE 6.4 km/h 5.6 km/h 33% 0 mm
16:59 37.5 °C 19.4 °C 1012.4 hPa SSW 3.7 km/h 2.1 km/h 35% 0 mm
17:04 37.4 °C 18.9 °C 1012.1 hPa SSE 14.8 km/h 8.7 km/h 34% 0 mm
17:09 37.3 °C 19.7 °C 1012.1 hPa SE 3.7 km/h 1.9 km/h 36% 0 mm
17:14 37.3 °C 19.7 °C 1012.1 hPa ESE 13 km/h 3.9 km/h 36% 0 mm
17:19 37.4 °C 18.9 °C 1012.1 hPa SSE 7.4 km/h 5.5 km/h 34% 0 mm
17:24 37.4 °C 19.4 °C 1012.1 hPa South 3.7 km/h 3.9 km/h 35% 0 mm
17:29 37.4 °C 19.3 °C 1012.1 hPa SE 9.3 km/h 1.9 km/h 35% 0 mm
17:34 37.4 °C 19.4 °C 1012.1 hPa SE 5.6 km/h 2.4 km/h 35% 0 mm
17:39 37.4 °C 19.8 °C 1012.1 hPa SE 7.4 km/h 1.8 km/h 36% 0 mm
17:44 37.3 °C 19.2 °C 1012.1 hPa NNW 5.6 km/h 4.7 km/h 35% 0 mm
17:49 37.3 °C 18.8 °C 1011.7 hPa East 5.6 km/h 2.3 km/h 34% 0 mm
17:54 37.3 °C 18.8 °C 1011.7 hPa SSE 13 km/h 7.2 km/h 34% 0 mm
17:59 37.3 °C 18.3 °C 1011.7 hPa East 5.6 km/h 3.2 km/h 33% 0 mm
18:04 37.4 °C 19.4 °C 1011.7 hPa SSE 5.6 km/h 2.7 km/h 35% 0 mm
18:09 37.1 °C 19.6 °C 1011.7 hPa ESE 3.7 km/h 2.1 km/h 36% 0 mm
18:14 36.7 °C 19.2 °C 1011.7 hPa SSW 7.4 km/h 0.6 km/h 36% 0 mm
18:19 36.6 °C 19.1 °C 1011.4 hPa South 13 km/h 8.7 km/h 36% 0 mm
18:24 36.4 °C 18.9 °C 1011.4 hPa ESE 5.6 km/h 3.4 km/h 36% 0 mm
18:29 36.2 °C 19.2 °C 1011.4 hPa ESE 7.4 km/h 1.9 km/h 37% 0 mm
18:34 36.1 °C 19.1 °C 1011.4 hPa SE 18.5 km/h 3.1 km/h 37% 0 mm
18:39 36.1 °C 19.1 °C 1011.4 hPa SSW 11.3 km/h 5 km/h 37% 0 mm
18:44 36.1 °C 19.5 °C 1011.4 hPa SE 5.6 km/h 6.4 km/h 38% 0 mm
18:49 36.1 °C 19.5 °C 1011.4 hPa SSE 8 km/h 4.8 km/h 38% 0 mm
18:54 35.8 °C 19.7 °C 1011.4 hPa SE 14.8 km/h 7.4 km/h 39% 0 mm
18:59 35.4 °C 19.7 °C 1011.4 hPa SE 5.6 km/h 4.3 km/h 40% 0 mm
19:04 35.2 °C 20 °C 1011.4 hPa SSE 13 km/h 3.7 km/h 41% 0 mm
19:09 35.2 °C 20.3 °C 1011.4 hPa SSE 7.4 km/h 5.1 km/h 42% 0 mm
19:14 34.9 °C 20.1 °C 1011.4 hPa South 14.8 km/h 3.7 km/h 42% 0 mm
19:19 34.8 °C 20.4 °C 1011.4 hPa ENE 7.4 km/h 4.8 km/h 43% 0 mm
19:24 34.8 °C 20.3 °C 1011.4 hPa SE 13 km/h 3.5 km/h 43% 0 mm
19:29 34.7 °C 20.6 °C 1011.4 hPa South 8 km/h 3.9 km/h 44% 0 mm
19:34 34.6 °C 20.5 °C 1011.4 hPa South 5.6 km/h 4.2 km/h 44% 0 mm
19:39 34.6 °C 20.5 °C 1011.4 hPa SSW 7.4 km/h 2.1 km/h 44% 0 mm
19:44 34.5 °C 20.5 °C 1011.4 hPa SSW 9.3 km/h 4.2 km/h 44% 0 mm
19:49 34.4 °C 20.8 °C 1011.4 hPa SSW 18.5 km/h 6.4 km/h 45% 0 mm
19:54 34.3 °C 21 °C 1011.4 hPa SSW 9.7 km/h 6.6 km/h 46% 0 mm
19:59 34.2 °C 20.9 °C 1011.4 hPa ENE 5.6 km/h 4 km/h 46% 0 mm
20:04 34.1 °C 21.2 °C 1011.4 hPa South 11.1 km/h 2.7 km/h 47% 0 mm
20:09 33.9 °C 21.3 °C 1011.4 hPa South 7.4 km/h 8.4 km/h 48% 0 mm
20:14 33.7 °C 21.2 °C 1011.4 hPa SSW 5.6 km/h 1.9 km/h 48% 0 mm
20:19 33.6 °C 21.4 °C 1011.4 hPa SSW 13 km/h 3.1 km/h 49% 0 mm
20:24 33.4 °C 21.3 °C 1011.4 hPa SSE 7.4 km/h 3.5 km/h 49% 0 mm
20:29 33.3 °C 21.1 °C 1011.7 hPa SE 5.6 km/h 2.4 km/h 49% 0 mm
20:34 33.2 °C 21 °C 1011.7 hPa SE 5.6 km/h 4 km/h 49% 0 mm
20:39 33 °C 20.9 °C 1011.7 hPa SSE 9.3 km/h 6.3 km/h 49% 0 mm
20:44 32.9 °C 20.8 °C 1011.7 hPa South 11.1 km/h 5.5 km/h 49% 0 mm
20:49 32.8 °C 20.7 °C 1011.7 hPa SW 11.1 km/h 4.3 km/h 49% 0 mm
20:54 32.7 °C 20.9 °C 1012.1 hPa SSE 13 km/h 6.4 km/h 50% 0 mm
20:58 32.6 °C 20.8 °C 1012.1 hPa South 11.1 km/h 7.2 km/h 50% 0 mm
21:04 32.5 °C 20.7 °C 1012.1 hPa SSW 5.6 km/h 5.1 km/h 50% 0 mm
21:09 32.4 °C 20.9 °C 1012.1 hPa South 11.1 km/h 8.2 km/h 51% 0 mm
21:14 32.3 °C 20.8 °C 1012.1 hPa SSE 7.4 km/h 5 km/h 51% 0 mm
21:19 32.1 °C 21 °C 1012.1 hPa South 7.4 km/h 3.5 km/h 52% 0 mm
21:24 31.9 °C 20.8 °C 1012.1 hPa SSW 13 km/h 8 km/h 52% 0 mm
21:29 31.9 °C 20.8 °C 1012.1 hPa South 9.3 km/h 5.6 km/h 52% 0 mm
21:34 31.8 °C 21 °C 1012.4 hPa South 9.7 km/h 5.3 km/h 53% 0 mm
21:39 31.7 °C 20.9 °C 1012.4 hPa SSE 5.6 km/h 4.3 km/h 53% 0 mm
21:44 31.6 °C 21.1 °C 1012.4 hPa South 3.7 km/h 3.2 km/h 54% 0 mm
21:49 31.5 °C 21.1 °C 1012.4 hPa South 1.9 km/h 1.6 km/h 54% 0 mm
21:54 31.3 °C 21.2 °C 1012.8 hPa South 5.6 km/h 2.3 km/h 55% 0 mm
21:59 31.3 °C 21.2 °C 1012.8 hPa South 1.9 km/h 1.1 km/h 55% 0 mm
22:04 31.1 °C 21.6 °C 1013.1 hPa SSW 5.6 km/h 3.2 km/h 57% 0 mm
22:09 30.9 °C 21.7 °C 1012.8 hPa SSW 3.7 km/h 3.4 km/h 58% 0 mm
22:14 30.8 °C 21.8 °C 1012.8 hPa SSE 1.9 km/h   59% 0 mm
22:19 30.7 °C 21.7 °C 1012.8 hPa SSE 3.7 km/h 1 km/h 59% 0 mm
22:23 30.5 °C 21.6 °C 1012.8 hPa SSE 3.7 km/h 1.9 km/h 59% 0 mm
22:29 30.3 °C 21.7 °C 1012.8 hPa SSW 1.9 km/h 2.1 km/h 60% 0 mm
22:34 30.3 °C 21.9 °C 1013.1 hPa Calm     61% 0 mm
22:39 30.1 °C 21.8 °C 1013.1 hPa Calm     61% 0 mm
22:44 30 °C 21.7 °C 1012.8 hPa Calm     61% 0 mm
22:49 29.9 °C 21.8 °C 1012.8 hPa Calm     62% 0 mm
22:54 29.8 °C 21.7 °C 1012.8 hPa Calm     62% 0 mm
22:59 29.7 °C 21.9 °C 1013.1 hPa Calm     63% 0 mm
23:04 29.6 °C 21.8 °C 1013.1 hPa Calm     63% 0 mm
23:09 29.4 °C 21.7 °C 1013.1 hPa South 1.9 km/h 0.2 km/h 63% 0 mm
23:14 29.3 °C 21.6 °C 1012.8 hPa South 1.9 km/h 0.6 km/h 63% 0 mm
23:19 29.3 °C 21.5 °C 1013.1 hPa South 1.9 km/h 1 km/h 63% 0 mm
23:24 29.2 °C 21.4 °C 1013.1 hPa Calm   1 km/h 63% 0 mm
23:29 29.2 °C 21.4 °C 1013.1 hPa SSE 3.7 km/h 0.3 km/h 63% 0 mm
23:34 29.1 °C 21.3 °C 1012.8 hPa SE 1.9 km/h 0.8 km/h 63% 0 mm
23:39 29.1 °C 21.3 °C 1013.1 hPa SE 3.7 km/h 1.8 km/h 63% 0 mm
23:44 29.1 °C 21.3 °C 1013.1 hPa SE 3.7 km/h 0.5 km/h 63% 0 mm
23:49 29 °C 21.2 °C 1013.1 hPa Calm     63% 0 mm
23:54 29 °C 21.2 °C 1012.8 hPa Calm     63% 0 mm
23:59 29 °C 21.2 °C 1012.8 hPa Calm     63% 0 mm
Live Lenexa Weather
Compliments of Weather Underground - 1.75 mb